Weather Roundup
Issued by NWS Springfield, MO

Home | Current Version | Previous Version | Text Only | Print | Product List | Glossary On
Versions: 1 2 3 4 5 6 7 8 9 10 11 12 13 14 15 16 17 18 19 20 21 22 23 24 25 26 27 28 29 30 31 32 33 34 35 36 37 38 39 40 41 42 43 44 45 46 47 48 49 50
000
NZUS99 KSGF 211507
HRRSGF

HOURLY WEATHER
NATIONAL WEATHER SERVICE SPRINGFIELD MO
1000 AM CDT TUE OCT 21 2014

......SGF CWA......

CITY           SKY/WX    TMP DP  RH WIND       PRES   REMARKS
SPRINGFIELD    SUNNY     62  51  67 S6        30.14R
JOPLIN         SUNNY     59  58  96 CALM      30.14S FOG
WEST PLAINS    SUNNY     63  46  54 W3        30.15R
ROLLA          SUNNY     58  46  64 W5        30.13R
OSAGE BEACH    SUNNY     55  48  76 NE5       30.15R
BRANSON        SUNNY     63  59  88 CALM      30.16R

......SURROUNDING SGF CWA......

CITY           SKY/WX    TMP DP  RH WIND       PRES   REMARKS
CHANUTE        SUNNY     62  58  86 SE3       30.13S
PARSONS        SUNNY     62  59  90 CALM      30.14R
COFFEYVILLE    CLOUDY    56  56 100 CALM      30.14R FOG
EMPORIA        SUNNY     58  51  78 SE5       30.13R
GROVE OK       MOSUNNY   57  57 100 CALM      30.15S FOG
ROGERS AR      CLOUDY    56  55  97 S3        30.17R VSB<1/4
SILOAM SPRINGS CLOUDY    57  52  82 E5        30.17R VSB 1/2
HARRISON AR    SUNNY     63  56  78 CALM      30.15S
NEAR YELLVILLE CLOUDY    54  48  82 CALM      30.15S VSB<1/4

......KANSAS AND MISSOURI......

CITY           SKY/WX    TMP DP  RH WIND       PRES   REMARKS
KANSAS CTY INT SUNNY     60  47  61 CALM      30.14R
DOWNTOWN KC    SUNNY     56  51  84 CALM      30.14S HAZE
COLUMBIA       SUNNY     60  48  64 NW3       30.14R
SEDALIA        SUNNY     61  45  55 CALM      30.16R
ST JOSEPH      SUNNY     51  47  86 CALM      30.15R
ST LOUIS       SUNNY     57  47  69 NE6       30.14R
SPIRIT OF STL  SUNNY     57  47  69 CALM      30.13R
KIRKSVILLE     SUNNY     54  47  77 E6        30.17R
WICHITA        MOSUNNY   64  57  78 SE9       30.11R
TOPEKA         SUNNY     53  49  86 CALM      30.14S
OLATHE         SUNNY     63  50  62 CALM      30.13S

......TENNESSEE......

CITY           SKY/WX    TMP DP  RH WIND       PRES   REMARKS
MEMPHIS        SUNNY     68  52  56 CALM      30.11R
NASHVILLE      SUNNY     63  51  65 CALM      30.08R

......ARKANSAS.......

CITY           SKY/WX    TMP DP  RH WIND       PRES   REMARKS
FAYETTEVILLE   CLOUDY    51  51 100 CALM      30.16R FOG
FT SMITH       SUNNY     64  58  80 E6        30.14R
LITTLE ROCK    SUNNY     68  55  63 NE5       30.13S

......OKLAHOMA.......

CITY           SKY/WX    TMP DP  RH WIND       PRES   REMARKS
TULSA          MOSUNNY   64  61  90 SE8       30.12R FOG
PONCA CITY     MOSUNNY   66  60  81 SE10      30.10R
MCALESTER      MOSUNNY   67  61  81 E3        30.13R
OKLAHOMA CITY  MOSUNNY   67  60  78 S6        30.10S

......IOWA............

CITY           SKY/WX    TMP DP  RH WIND       PRES   REMARKS
DES MOINES     SUNNY     53  43  68 E5        30.16R
QUAD CITIES    SUNNY     52  42  69 NE12      30.19R

......ILLINOIS........

CITY           SKY/WX    TMP DP  RH WIND       PRES   REMARKS
QUINCY         SUNNY     54  42  64 NE12      30.16R
CHICAGO        PTSUNNY   49  40  71 N13       30.15R



USA.gov is the U.S. government's official web portal to all federal, state and local government web resources and services.